When you browse on this site, cookies collect data to enhance your experience and personalize the content and advertising you see.
Visit our Privacy Policy to learn more. By continuing to use the site, you agree to this use of cookies and data.
  • In Romania
  • List of Countries
  • For 7 days
  • Water Temperature
  • Satellite Maps
  • Weather Map
  • Weather Widgets
  • user-avatar
    Login

    Hourly Weather Yuhnovo

    Today, 25 April, Thursday

    Time Temperature Precipitation Wind Pressure Humidity
    00:00 +13°C° 0 mm 1 mps 753 mmHg 56%
    01:00 +13°C° 0 mm 1 mps 753 mmHg 58%
    02:00 +12°C° 0 mm 1 mps 752 mmHg 62%
    03:00 +12°C° 0 mm 1 mps 752 mmHg 62%
    04:00 +12°C° 0 mm 1 mps 752 mmHg 63%
    05:00 +12°C° 0 mm 1 mps 752 mmHg 63%
    06:00 +14°C° 0 mm 1 mps 752 mmHg 57%
    07:00 +16°C° 0 mm 1 mps 752 mmHg 51%
    08:00 +19°C° 0 mm 1 mps 752 mmHg 46%
    09:00 +20°C° 0 mm 1 mps 752 mmHg 40%
    10:00 +21°C° 0 mm 2 mps 752 mmHg 34%
    11:00 +24°C° 0 mm 2 mps 752 mmHg 28%
    12:00 +24°C° 0 mm 2 mps 752 mmHg 27%
    13:00 +24°C° 0 mm 2 mps 751 mmHg 26%
    14:00 +24°C° 0 mm 2 mps 751 mmHg 25%
    15:00 +24°C° 0 mm 2 mps 751 mmHg 27%
    16:00 +24°C° 0 mm 2 mps 751 mmHg 29%
    17:00 +23°C° 0 mm 2 mps 750 mmHg 30%
    18:00 +20°C° 0 mm 2 mps 750 mmHg 36%
    19:00 +19°C° 0 mm 1 mps 750 mmHg 43%
    20:00 +16°C° 0 mm 1 mps 750 mmHg 49%
    21:00 +15°C° 0 mm 1 mps 750 mmHg 50%
    22:00 +14°C° 0 mm 1 mps 750 mmHg 52%
    23:00 +14°C° 0 mm 1 mps 750 mmHg 54%

    Tomorrow, 26 April, Friday

    Time Temperature Precipitation Wind Pressure Humidity
    00:00 +13°C° 0 mm 1 mps 750 mmHg 55%
    01:00 +13°C° 0 mm 1 mps 750 mmHg 56%
    02:00 +12°C° 0 mm 1 mps 750 mmHg 57%
    03:00 +12°C° 0 mm 1 mps 750 mmHg 59%
    04:00 +12°C° 0 mm 1 mps 750 mmHg 61%
    05:00 +11°C° 0 mm 1 mps 750 mmHg 63%
    06:00 +13°C° 0 mm 1 mps 750 mmHg 58%
    07:00 +15°C° 0 mm 1 mps 750 mmHg 53%
    08:00 +18°C° 0 mm 1 mps 749 mmHg 48%
    09:00 +19°C° 0 mm 2 mps 749 mmHg 42%
    10:00 +20°C° 0 mm 2 mps 749 mmHg 37%
    11:00 +22°C° 0 mm 3 mps 749 mmHg 32%
    12:00 +22°C° 0 mm 3 mps 749 mmHg 31%
    13:00 +22°C° 0 mm 3 mps 748 mmHg 30%
    14:00 +24°C° 0 mm 3 mps 748 mmHg 30%
    15:00 +22°C° 0 mm 3 mps 748 mmHg 31%
    16:00 +22°C° 0 mm 3 mps 747 mmHg 33%
    17:00 +21°C° 0 mm 3 mps 747 mmHg 34%
    18:00 +19°C° 0 mm 2 mps 747 mmHg 42%
    19:00 +17°C° 0 mm 2 mps 746 mmHg 49%
    20:00 +15°C° 0 mm 1 mps 746 mmHg 57%
    21:00 +15°C° 0 mm 1 mps 746 mmHg 60%
    22:00 +14°C° 0 mm 2 mps 746 mmHg 63%
    23:00 +13°C° 0 mm 2 mps 745 mmHg 66%

    Day after tomorrow, 27 April, Saturday

    Time Temperature Precipitation Wind Pressure Humidity
    00:00 +13°C° 0 mm 2 mps 745 mmHg 68%
    01:00 +12°C° 0 mm 2 mps 745 mmHg 71%
    02:00 +12°C° 0 mm 2 mps 745 mmHg 73%
    03:00 +12°C° 0 mm 2 mps 744 mmHg 75%
    04:00 +10°C° 0 mm 2 mps 744 mmHg 77%
    05:00 +10°C° 0 mm 2 mps 744 mmHg 79%
    06:00 +13°C° 0 mm 2 mps 743 mmHg 70%
    07:00 +14°C° 0 mm 3 mps 743 mmHg 61%
    08:00 +17°C° 0 mm 3 mps 743 mmHg 51%
    09:00 +19°C° 0 mm 3 mps 742 mmHg 47%
    10:00 +20°C° 0 mm 3 mps 742 mmHg 42%
    11:00 +22°C° 0 mm 3 mps 741 mmHg 37%
    12:00 +22°C° 0 mm 3 mps 741 mmHg 39%
    13:00 +24°C° 0 mm 3 mps 741 mmHg 40%
    14:00 +24°C° 0 mm 3 mps 740 mmHg 42%
    15:00 +24°C° 0.6 mm 3 mps 740 mmHg 47%
    16:00 +22°C° 0.6 mm 3 mps 739 mmHg 52%
    17:00 +21°C° 0.6 mm 2 mps 739 mmHg 57%
    18:00 +20°C° 2.5 mm 2 mps 739 mmHg 67%
    19:00 +19°C° 2.5 mm 1 mps 739 mmHg 76%
    20:00 +16°C° 2.5 mm 1 mps 739 mmHg 86%
    21:00 +15°C° 0.2 mm 1 mps 739 mmHg 87%
    22:00 +15°C° 0.2 mm 1 mps 739 mmHg 89%
    23:00 +14°C° 0.2 mm 1 mps 739 mmHg 90%

    28 April, Sunday

    Time Temperature Precipitation Wind Pressure Humidity
    00:00 +14°C° 0 mm 1 mps 739 mmHg 92%
    01:00 +13°C° 0 mm 2 mps 739 mmHg 93%
    02:00 +12°C° 0 mm 3 mps 739 mmHg 94%
    03:00 +12°C° 0 mm 4 mps 740 mmHg 92%
    04:00 +12°C° 0 mm 4 mps 740 mmHg 90%
    05:00 +11°C° 0 mm 4 mps 741 mmHg 88%
    06:00 +10°C° 0 mm 5 mps 741 mmHg 86%
    07:00 +9°C° 0 mm 5 mps 742 mmHg 84%
    08:00 +8°C° 0 mm 5 mps 743 mmHg 82%
    09:00 +8°C° 0 mm 5 mps 744 mmHg 78%
    10:00 +8°C° 0 mm 5 mps 744 mmHg 74%
    11:00 +8°C° 0 mm 5 mps 745 mmHg 70%
    12:00 +9°C° 0 mm 5 mps 745 mmHg 60%
    13:00 +10°C° 0 mm 5 mps 746 mmHg 50%
    14:00 +12°C° 0 mm 5 mps 746 mmHg 40%
    15:00 +12°C° 0 mm 5 mps 746 mmHg 40%
    16:00 +10°C° 0 mm 5 mps 747 mmHg 40%
    17:00 +10°C° 0 mm 5 mps 747 mmHg 40%
    18:00 +8°C° 0 mm 4 mps 747 mmHg 44%
    19:00 +7°C° 0 mm 4 mps 748 mmHg 49%
    20:00 +5°C° 0 mm 3 mps 749 mmHg 53%
    21:00 +4°C° 0 mm 3 mps 749 mmHg 54%
    22:00 +3°C° 0 mm 3 mps 750 mmHg 55%
    23:00 +2°C° 0 mm 3 mps 750 mmHg 57%

    29 April, Monday

    Time Temperature Precipitation Wind Pressure Humidity
    00:00 +2°C° 0 mm 3 mps 751 mmHg 58%
    01:00 +1°C° 0 mm 3 mps 751 mmHg 60%
    02:00 0°C° 0 mm 3 mps 751 mmHg 61%
    03:00 0°C° 0 mm 3 mps 751 mmHg 62%
    04:00 0°C° 0 mm 3 mps 752 mmHg 64%
    05:00 0°C° 0 mm 3 mps 752 mmHg 65%
    06:00 +1°C° 0 mm 3 mps 752 mmHg 60%
    07:00 +2°C° 0 mm 3 mps 752 mmHg 55%
    08:00 +4°C° 0 mm 4 mps 752 mmHg 50%
    09:00 +5°C° 0 mm 4 mps 752 mmHg 45%
    10:00 +6°C° 0 mm 4 mps 752 mmHg 41%
    11:00 +7°C° 0 mm 4 mps 752 mmHg 36%
    12:00 +8°C° 0 mm 4 mps 752 mmHg 35%
    13:00 +10°C° 0 mm 3 mps 752 mmHg 33%
    14:00 +10°C° 0 mm 3 mps 752 mmHg 32%
    15:00 +10°C° 0 mm 3 mps 751 mmHg 33%
    16:00 +10°C° 0 mm 3 mps 751 mmHg 34%
    17:00 +10°C° 0 mm 3 mps 751 mmHg 34%
    18:00 +8°C° 0 mm 3 mps 751 mmHg 41%
    19:00 +6°C° 0 mm 2 mps 751 mmHg 47%
    20:00 +5°C° 0 mm 2 mps 751 mmHg 54%
    21:00 +4°C° 0 mm 2 mps 752 mmHg 56%
    22:00 +3°C° 0 mm 2 mps 752 mmHg 59%
    23:00 +2°C° 0 mm 2 mps 752 mmHg 61%

    30 April, Tuesday

    Time Temperature Precipitation Wind Pressure Humidity
    00:00 +2°C° 0 mm 2 mps 752 mmHg 63%
    01:00 +1°C° 0 mm 2 mps 752 mmHg 65%
    02:00 +1°C° 0 mm 2 mps 752 mmHg 66%
    03:00 +1°C° 0 mm 2 mps 752 mmHg 67%
    04:00 -1°C° 0 mm 2 mps 752 mmHg 67%
    05:00 -1°C° 0 mm 2 mps 752 mmHg 67%
    06:00 +2°C° 0 mm 2 mps 752 mmHg 59%
    07:00 +4°C° 0 mm 2 mps 752 mmHg 51%
    08:00 +6°C° 0 mm 2 mps 752 mmHg 42%
    09:00 +8°C° 0 mm 2 mps 752 mmHg 39%
    10:00 +9°C° 0 mm 2 mps 752 mmHg 35%
    11:00 +10°C° 0 mm 2 mps 752 mmHg 32%
    12:00 +12°C° 0 mm 2 mps 751 mmHg 30%
    13:00 +12°C° 0 mm 2 mps 751 mmHg 29%
    14:00 +13°C° 0 mm 2 mps 751 mmHg 28%
    15:00 +13°C° 0 mm 2 mps 750 mmHg 29%
    16:00 +13°C° 0 mm 2 mps 750 mmHg 30%
    17:00 +12°C° 0 mm 2 mps 750 mmHg 31%
    18:00 +11°C° 0 mm 1 mps 749 mmHg 37%
    19:00 +9°C° 0 mm 1 mps 749 mmHg 43%
    20:00 +7°C° 0 mm 1 mps 749 mmHg 49%
    21:00 +6°C° 0 mm 1 mps 749 mmHg 52%
    22:00 +5°C° 0 mm 1 mps 749 mmHg 55%
    23:00 +5°C° 0 mm 1 mps 749 mmHg 58%
    Show more